User: anonymous   Login
Location: Caltech
(34.1382°N, 118.1253°W)
Time: 18:17:20
(UTC-07:00)
Language:

NOSS 3-2 (A) - Orbit

View from above orbital plane
View from above orbital plane
View from above satellite
View from above satellite

Ground track
Ground track

The orbit data is extracted from the following two-line orbital elements,

1 28095U 03054A   15112.00906237 0.00000000  00000-0  00000-0 0    06
2 28095  63.4270 160.9102 0235000 358.3745   1.6255 13.41311162    04
Epoch (UTC): 22 April 2015 00:13:02
Eccentricity: 0.0235000
inclination: 63.4270°
perigee height: 928 km
apogee height: 1280 km
right ascension of ascending node: 160.9102°
argument of perigee: 358.3745°
revolutions per day: 13.41311162
mean anomaly at epoch: 1.6255°
orbit number at epoch: 0

The dashed part of the orbit path shows where the satellite is in the earth's shadow,  

DLR